"Period start","avg(HW err(1)/warn(2) (#))","avg(Visibility (m))","avg(Weather code (#))","avg(Precip intensity (mm/h))","min(HW err(1)/warn(2) (#))","max(HW err(1)/warn(2) (#))","std(HW err(1)/warn(2) (#))","med(HW err(1)/warn(2) (#))","min(Visibility (m))","max(Visibility (m))","std(Visibility (m))","med(Visibility (m))","min(Weather code (#))","max(Weather code (#))","std(Weather code (#))","med(Weather code (#))","min(Precip intensity (mm/h))","max(Precip intensity (mm/h))","std(Precip intensity (mm/h))","med(Precip intensity (mm/h))"
2017-12-22 00:00:00,1,0,77,0.05,1,2,0,1,0,0,0,0,77,77,0,77,0.05,0.05,0.00,0.05
2017-12-22 00:10:00,1,,,,1,1,0,1,,,,,,,,,,,,
2017-12-22 00:20:00,1,0,41,0.00,1,2,0,1,0,0,0,0,41,41,0,41,0.00,0.00,0.00,0.00
2017-12-22 00:30:00,1,,,,1,1,0,1,,,,,,,,,,,,
2017-12-22 00:40:00,1,31444,77,0.00,1,2,0,1,31444,31444,0,31444,77,77,0,77,0.00,0.00,0.00,0.00
2017-12-22 00:50:00,2,8550,74,0.08,1,2,0,2,0,17731,4515,7979,71,77,3,74,0.00,0.20,0.06,0.08
2017-12-22 01:00:00,2,7291,71,0.14,2,2,0,2,5585,8834,921,7189,71,71,0,71,0.05,0.35,0.09,0.10
2017-12-22 01:10:00,2,8349,72,0.06,2,2,0,2,7015,11167,1279,7936,71,77,2,71,0.00,0.10,0.04,0.05
2017-12-22 01:20:00,2,28947,75,0.03,2,2,0,2,16996,37004,5985,29040,71,77,3,77,0.00,0.05,0.03,0.03
2017-12-22 01:30:00,2,13656,71,0.06,2,2,0,2,9715,19441,3032,12348,71,71,0,71,0.00,0.15,0.04,0.05
2017-12-22 01:40:00,2,15994,71,0.09,2,2,0,2,11540,21261,3262,15795,71,71,0,71,0.00,0.30,0.08,0.05
2017-12-22 01:50:00,2,13883,71,0.12,2,2,0,2,8047,19854,3489,13526,71,71,0,71,0.00,0.25,0.09,0.10
2017-12-22 02:00:00,2,15530,71,0.05,2,2,0,2,11454,20200,2492,15394,71,71,0,71,0.00,0.15,0.04,0.05
2017-12-22 02:10:00,2,18467,74,0.05,2,2,0,2,9141,24877,5617,18830,71,77,3,74,0.00,0.20,0.07,0.03
2017-12-22 02:20:00,2,8255,71,0.27,2,2,0,2,5783,10504,1552,8227,71,71,0,71,0.05,1.05,0.27,0.15
2017-12-22 02:30:00,2,6380,71,0.33,2,2,0,2,4629,7916,979,6350,71,71,0,71,0.15,0.75,0.18,0.30
2017-12-22 02:40:00,2,8296,71,0.21,2,2,0,2,5259,11448,2014,8420,71,71,0,71,0.05,0.40,0.13,0.15
2017-12-22 02:50:00,2,8113,71,0.21,2,2,0,2,5928,9917,1247,8410,71,71,0,71,0.05,0.35,0.13,0.17
2017-12-22 03:00:00,2,10574,73,0.07,2,2,0,2,7885,12895,1690,9936,71,77,3,71,0.00,0.15,0.05,0.05
2017-12-22 03:10:00,2,10706,71,0.12,2,2,0,2,9089,13309,1182,10547,71,71,0,71,0.05,0.20,0.05,0.15
2017-12-22 03:20:00,2,9449,71,0.11,2,2,0,2,5331,13573,2296,9660,71,71,0,71,0.05,0.20,0.06,0.10
2017-12-22 03:30:00,2,4913,71,0.27,2,2,0,2,2556,8465,2039,4374,71,71,0,71,0.10,0.65,0.19,0.20
2017-12-22 03:40:00,2,22023,71,0.07,2,2,0,2,5870,33314,7994,24896,71,71,0,71,0.00,0.25,0.08,0.05
2017-12-22 03:50:00,2,15984,74,0.04,2,2,0,2,10296,21833,3607,15676,71,77,3,74,0.00,0.10,0.03,0.05
2017-12-22 04:00:00,2,21651,73,0.02,2,2,0,2,13235,26328,3365,21754,71,77,3,71,0.00,0.10,0.03,0.00
2017-12-22 04:10:00,2,19093,75,0.02,2,2,0,2,14732,23958,2987,18949,71,77,3,77,0.00,0.05,0.02,0.00
2017-12-22 04:20:00,2,29210,76,0.01,2,2,0,2,16894,36184,5889,29042,71,77,2,77,0.00,0.05,0.02,0.00
2017-12-22 04:30:00,2,33899,75,0.01,2,2,0,2,21247,42101,6104,34237,71,77,3,77,0.00,0.05,0.02,0.00
2017-12-22 04:40:00,2,32766,72,0.01,2,2,0,2,26229,39739,4432,32592,71,77,2,71,0.00,0.05,0.02,0.00
2017-12-22 04:50:00,2,24794,76,0.03,2,2,0,2,7618,42049,13729,28207,71,77,2,77,0.00,0.10,0.04,0.00
2017-12-22 05:00:00,2,28634,75,0.01,2,2,0,2,18607,39893,7050,30104,71,77,3,77,0.00,0.05,0.02,0.00
2017-12-22 05:10:00,2,21407,76,0.02,2,2,0,2,15105,30663,5493,19548,71,77,2,77,0.00,0.05,0.02,0.00
2017-12-22 05:20:00,2,25803,73,0.04,2,2,0,2,17863,31272,4739,26895,71,77,3,71,0.00,0.25,0.09,0.00
2017-12-22 05:30:00,2,38252,73,0.01,2,2,0,2,27412,48815,7069,37552,71,77,3,71,0.00,0.05,0.02,0.00
2017-12-22 05:40:00,2,29382,75,0.01,2,2,0,2,15808,36985,5864,30422,71,77,3,77,0.00,0.10,0.03,0.00
2017-12-22 05:50:00,2,27208,75,0.03,2,2,0,2,13182,44806,9288,24830,71,77,3,77,0.00,0.15,0.05,0.00
2017-12-22 06:00:00,2,25187,75,0.02,2,2,0,2,19616,32950,3908,25090,71,77,3,77,0.00,0.10,0.03,0.00
2017-12-22 06:10:00,2,28109,75,0.01,2,2,0,2,18615,35616,4614,29592,71,77,3,77,0.00,0.05,0.02,0.00
2017-12-22 06:20:00,2,30202,76,0.01,2,2,0,2,19757,42660,7689,29028,71,77,2,77,0.00,0.05,0.02,0.00
2017-12-22 06:30:00,2,11476,77,0.07,2,2,0,2,5962,20361,4824,9643,77,77,0,77,0.00,0.20,0.06,0.08
2017-12-22 06:40:00,2,9685,76,0.08,2,2,0,2,8401,11265,923,9737,71,77,2,77,0.05,0.15,0.04,0.05
2017-12-22 06:50:00,2,12945,75,0.05,2,2,0,2,10550,14295,1176,13259,71,77,3,77,0.05,0.05,0.00,0.05
2017-12-22 07:00:00,2,11988,77,0.06,2,2,0,2,9826,16127,1667,11747,77,77,0,77,0.05,0.10,0.02,0.05
2017-12-22 07:10:00,2,7702,75,0.12,2,2,0,2,5557,10931,1514,7894,71,77,3,77,0.05,0.30,0.07,0.10
2017-12-22 07:20:00,2,5276,71,0.32,2,2,0,2,3719,7728,1208,5104,71,71,0,71,0.10,0.55,0.14,0.30
2017-12-22 07:30:00,2,6403,71,0.36,2,2,0,2,3726,9350,1804,6103,71,71,0,71,0.05,0.75,0.22,0.28
2017-12-22 07:40:00,2,7332,71,0.29,2,2,0,2,5377,11135,1712,6631,71,71,0,71,0.05,0.65,0.17,0.23
2017-12-22 07:50:00,2,6733,71,0.37,2,2,0,2,3940,9801,1774,6907,71,71,0,71,0.10,0.80,0.25,0.25
2017-12-22 08:00:00,2,4031,71,0.40,2,2,0,2,2701,6176,1084,3961,71,71,0,71,0.25,0.65,0.15,0.35
2017-12-22 08:10:00,2,3783,71,0.40,2,2,0,2,2408,5033,794,3840,71,71,0,71,0.15,0.70,0.18,0.35
2017-12-22 08:20:00,2,4716,71,0.27,2,2,0,2,3491,5195,563,4982,71,71,0,71,0.10,0.60,0.16,0.20
2017-12-22 08:30:00,2,5011,71,0.36,2,2,0,2,2912,7203,1306,4947,71,71,0,71,0.15,0.70,0.16,0.33
2017-12-22 08:40:00,2,4453,71,0.56,2,2,0,2,1955,6973,1470,4687,71,71,0,71,0.10,1.60,0.46,0.40
2017-12-22 08:50:00,2,4386,71,0.23,2,2,0,2,3878,4884,317,4410,71,71,0,71,0.10,0.55,0.14,0.17
2017-12-22 09:00:00,2,4048,71,0.20,2,2,0,2,3418,4712,427,4064,71,71,0,71,0.10,0.30,0.06,0.20
2017-12-22 09:10:00,2,3915,71,0.23,2,2,0,2,3317,4697,436,3894,71,71,0,71,0.05,0.55,0.16,0.17
2017-12-22 09:20:00,2,3610,71,0.25,2,2,0,2,2540,4198,410,3684,71,71,0,71,0.10,0.80,0.20,0.20
2017-12-22 09:30:00,2,4220,71,0.22,2,2,0,2,3541,5509,481,4153,71,71,0,71,0.10,0.45,0.12,0.17
2017-12-22 09:40:00,2,4197,71,0.26,2,2,0,2,2863,4943,613,4203,71,71,0,71,0.05,0.65,0.16,0.20
2017-12-22 09:50:00,2,6084,71,0.28,2,2,0,2,4532,7875,958,5900,71,71,0,71,0.05,0.70,0.24,0.12
2017-12-22 10:00:00,2,8208,71,0.11,2,2,0,2,6939,9559,945,8065,71,71,0,71,0.05,0.25,0.08,0.08
2017-12-22 10:10:00,2,9969,73,0.05,2,2,0,2,8802,13102,1166,9709,71,77,3,71,0.00,0.10,0.03,0.05
2017-12-22 10:20:00,2,9181,72,0.10,2,2,0,2,4923,11646,1869,9631,71,77,2,71,0.05,0.25,0.07,0.05
2017-12-22 10:30:00,2,12127,71,0.08,2,2,0,2,8595,15786,2510,11995,71,71,0,71,0.00,0.25,0.07,0.05
2017-12-22 10:40:00,2,16419,71,0.02,2,2,0,2,13981,18979,1466,16207,71,71,0,71,0.00,0.10,0.03,0.00
2017-12-22 10:50:00,2,14010,76,0.01,2,2,0,2,11038,16358,1524,14266,71,77,2,77,0.00,0.05,0.02,0.00
2017-12-22 11:00:00,2,12295,77,0.04,2,2,0,2,8337,13799,1627,13062,77,77,0,77,0.00,0.10,0.03,0.05
2017-12-22 11:10:00,2,10390,72,0.12,2,2,0,2,7640,12789,1650,10630,71,77,2,71,0.00,0.25,0.09,0.10
2017-12-22 11:20:00,2,13915,74,0.03,2,2,0,2,11273,19669,2330,13509,71,77,3,74,0.00,0.10,0.03,0.03
2017-12-22 11:30:00,2,19605,72,0.02,2,2,0,2,14472,24679,3870,20022,71,77,2,71,0.00,0.05,0.02,0.00
2017-12-22 11:40:00,2,20804,71,0.04,2,2,0,2,10762,36109,7410,20060,71,71,0,71,0.00,0.20,0.07,0.00
2017-12-22 11:50:00,2,17004,72,0.06,2,2,0,2,12541,20661,1901,17332,71,77,2,71,0.00,0.15,0.05,0.05
2017-12-22 12:00:00,2,14416,71,0.07,2,2,0,2,8933,22285,3401,13754,71,71,0,71,0.00,0.35,0.10,0.03
2017-12-22 12:10:00,2,20219,73,0.01,2,2,0,2,13158,28732,5124,20322,71,77,3,71,0.00,0.10,0.03,0.00
2017-12-22 12:20:00,2,28046,75,0.00,2,2,0,2,18233,38675,6336,26486,71,77,3,77,0.00,0.00,0.00,0.00
2017-12-22 12:30:00,2,13378,76,0.02,2,2,0,2,7814,20513,4668,10968,71,77,2,77,0.00,0.05,0.02,0.00
2017-12-22 12:40:00,2,9404,77,0.05,2,2,0,2,7350,12428,1497,9258,77,77,0,77,0.00,0.10,0.02,0.05
2017-12-22 12:50:00,2,13346,77,0.03,2,2,0,2,10044,18461,2522,12842,77,77,0,77,0.00,0.05,0.03,0.03
2017-12-22 13:00:00,2,13792,77,0.03,2,2,0,2,8184,19457,3253,13398,77,77,0,77,0.00,0.05,0.02,0.05
2017-12-22 13:10:00,2,12486,77,0.02,2,2,0,2,8617,15695,2262,13053,77,77,0,77,0.00,0.10,0.03,0.00
2017-12-22 13:20:00,2,9940,77,0.03,2,2,0,2,9111,11572,788,9728,77,77,0,77,0.00,0.15,0.04,0.03
2017-12-22 13:30:00,2,7437,74,0.07,2,2,0,2,6322,9271,981,7121,71,77,3,74,0.05,0.10,0.03,0.08
2017-12-22 13:40:00,2,6473,77,0.08,2,2,0,2,5561,7223,430,6453,77,77,0,77,0.05,0.10,0.02,0.10
2017-12-22 13:50:00,2,8364,77,0.06,2,2,0,2,6312,10720,1253,8182,77,77,0,77,0.00,0.10,0.03,0.05
2017-12-22 14:00:00,2,14019,77,0.01,2,2,0,2,9488,19592,2905,14037,77,77,0,77,0.00,0.05,0.02,0.00
2017-12-22 14:10:00,2,13900,77,0.02,2,2,0,2,10720,18730,2523,13488,77,77,0,77,0.00,0.05,0.02,0.00
2017-12-22 14:20:00,2,5768,75,0.12,2,2,0,2,3676,9151,1629,5412,71,77,3,77,0.05,0.20,0.05,0.12
2017-12-22 14:30:00,2,6552,77,0.07,2,2,0,2,5151,7572,871,6865,77,77,0,77,0.05,0.10,0.02,0.05
2017-12-22 14:40:00,2,8423,77,0.04,2,2,0,2,6666,9915,909,8308,77,77,0,77,0.00,0.05,0.02,0.05
2017-12-22 14:50:00,2,8369,77,0.06,2,2,0,2,6863,10291,1146,8304,77,77,0,77,0.05,0.10,0.02,0.05
2017-12-22 15:00:00,2,9227,77,0.06,2,2,0,2,7644,11830,1215,9051,77,77,0,77,0.00,0.10,0.04,0.05
2017-12-22 15:10:00,2,6929,77,0.07,2,2,0,2,6127,7944,594,6799,77,77,0,77,0.05,0.10,0.02,0.05
2017-12-22 15:20:00,2,5756,76,0.16,2,2,0,2,4263,6728,704,5925,71,77,2,77,0.05,0.40,0.10,0.15
2017-12-22 15:30:00,2,5688,71,0.12,2,2,0,2,3297,10358,1827,5236,71,71,0,71,0.00,0.30,0.08,0.10
2017-12-22 15:40:00,2,5402,71,0.27,2,2,0,2,2884,7069,1375,5670,71,71,0,71,0.05,1.00,0.31,0.10
2017-12-22 15:50:00,2,4393,71,0.44,2,2,0,2,2383,5818,1010,4595,71,71,0,71,0.10,1.20,0.30,0.35
2017-12-22 16:00:00,2,6513,71,0.15,2,2,0,2,5281,8850,987,6327,71,71,0,71,0.05,0.35,0.10,0.12
2017-12-22 16:10:00,2,5152,71,0.40,2,2,0,2,3758,7383,1149,4921,71,71,0,71,0.10,0.85,0.26,0.32
2017-12-22 16:20:00,2,7194,71,0.21,2,2,0,2,4834,8307,1134,7520,71,71,0,71,0.05,0.80,0.23,0.08
2017-12-22 16:30:00,2,9158,72,0.05,2,2,0,2,7657,10609,1092,9024,71,77,2,71,0.00,0.10,0.03,0.05
2017-12-22 16:40:00,2,9511,74,0.10,2,2,0,2,7578,11801,1315,9449,71,77,3,74,0.00,0.40,0.12,0.05
2017-12-22 16:50:00,2,7566,75,0.07,2,2,0,2,6270,8221,588,7702,71,77,3,77,0.05,0.15,0.03,0.05
2017-12-22 17:00:00,2,6423,74,0.11,2,2,0,2,4795,7284,701,6480,71,77,3,74,0.05,0.15,0.04,0.10
2017-12-22 17:10:00,2,5504,76,0.12,2,2,0,2,4353,6512,827,5500,71,77,2,77,0.05,0.30,0.08,0.10
2017-12-22 17:20:00,2,5417,73,0.11,2,2,0,2,4966,6531,413,5394,71,77,3,71,0.10,0.15,0.02,0.10
2017-12-22 17:30:00,2,6951,72,0.15,2,2,0,2,4167,9197,1378,6938,71,77,2,71,0.05,0.40,0.12,0.10
2017-12-22 17:40:00,2,15366,71,0.12,2,2,0,2,8738,26928,5554,16286,71,71,0,71,0.00,0.25,0.09,0.10
2017-12-22 17:50:00,2,30563,21,0.00,2,2,0,2,13538,36244,6924,33218,0,71,33,0,0.00,0.00,0.00,0.00
2017-12-22 18:00:00,2,42936,0,0.00,2,2,0,2,34220,50000,5752,41752,0,0,0,0,0.00,0.00,0.00,0.00
2017-12-22 18:10:00,2,49789,0,0.00,2,2,0,2,49128,50000,341,49990,0,0,0,0,0.00,0.00,0.00,0.00
2017-12-22 18:20:00,2,50000,0,0.00,2,2,0,2,50000,50000,0,50000,0,0,0,0,0.00,0.00,0.00,0.00
2017-12-22 18:30:00,2,26955,16,0.02,2,2,0,2,9092,46150,13959,29040,0,41,20,0,0.00,0.10,0.03,0.00
2017-12-22 18:40:00,2,8188,77,0.05,2,2,0,2,5468,10271,1186,8374,77,77,0,77,0.05,0.05,0.00,0.05
2017-12-22 18:50:00,2,6545,77,0.09,2,2,0,2,4128,9697,1648,6414,77,77,0,77,0.05,0.20,0.05,0.05
2017-12-22 19:00:00,2,6496,77,0.12,2,2,0,2,5307,8364,846,6192,77,77,0,77,0.05,0.25,0.06,0.15
2017-12-22 19:10:00,2,5691,73,0.17,2,2,0,2,4479,6452,668,5704,71,77,3,71,0.10,0.40,0.09,0.15
2017-12-22 19:20:00,2,7999,71,0.11,2,2,0,2,6281,10081,964,7774,71,71,0,71,0.05,0.20,0.04,0.10
2017-12-22 19:30:00,2,17603,71,0.07,2,2,0,2,10682,22254,3154,17784,71,71,0,71,0.00,0.30,0.10,0.03
2017-12-22 19:40:00,2,18431,73,0.02,2,2,0,2,12976,25561,3990,18112,71,77,3,71,0.00,0.05,0.02,0.00
2017-12-22 19:50:00,2,19805,38,0.01,2,2,0,2,8992,27429,5341,20270,0,77,38,36,0.00,0.05,0.02,0.00
2017-12-22 20:00:00,2,16587,76,0.02,2,2,0,2,9065,28383,5989,15914,71,77,2,77,0.00,0.10,0.03,0.00
2017-12-22 20:10:00,2,12295,77,0.01,2,2,0,2,10683,15761,1632,11981,77,77,0,77,0.00,0.05,0.02,0.00
2017-12-22 20:20:00,2,13181,77,0.00,2,2,0,2,10657,16768,1834,13388,77,77,0,77,0.00,0.00,0.00,0.00
2017-12-22 20:30:00,2,12578,77,0.00,2,2,0,2,10672,15054,1185,12338,77,77,0,77,0.00,0.00,0.00,0.00
2017-12-22 20:40:00,2,11219,77,0.00,2,2,0,2,8687,15239,2008,10688,77,77,0,77,0.00,0.00,0.00,0.00
2017-12-22 20:50:00,2,12211,77,0.01,2,2,0,2,9196,15376,1671,12352,77,77,0,77,0.00,0.05,0.02,0.00
2017-12-22 21:00:00,2,10269,72,0.04,2,2,0,2,7511,12035,1306,10392,71,77,2,71,0.00,0.40,0.12,0.00
2017-12-22 21:10:00,2,8015,76,0.04,2,2,0,2,3907,12904,2318,8102,71,77,2,77,0.00,0.10,0.04,0.05
2017-12-22 21:20:00,2,3676,76,0.03,2,2,0,2,2523,4864,705,3482,71,77,2,77,0.00,0.05,0.02,0.05
2017-12-22 21:30:00,2,3493,77,0.06,2,2,0,2,2883,4819,579,3214,77,77,0,77,0.00,0.10,0.03,0.05
2017-12-22 21:40:00,2,5336,77,0.03,2,2,0,2,3548,6436,739,5408,77,77,0,77,0.00,0.15,0.05,0.00
2017-12-22 21:50:00,2,8548,77,0.00,2,2,0,2,6853,10600,1114,8597,77,77,0,77,0.00,0.00,0.00,0.00
2017-12-22 22:00:00,2,14305,77,0.00,2,2,0,2,9586,21670,3530,14532,77,77,0,77,0.00,0.00,0.00,0.00
2017-12-22 22:10:00,2,22268,38,0.01,2,2,0,2,16224,32852,4323,22067,0,77,38,38,0.00,0.05,0.02,0.00
2017-12-22 22:20:00,2,37042,0,0.00,2,2,0,2,30202,48383,5330,36284,0,0,0,0,0.00,0.00,0.00,0.00
2017-12-22 22:30:00,2,24666,50,0.01,2,2,0,2,8120,50000,13659,22508,0,71,33,71,0.00,0.05,0.02,0.00
2017-12-22 22:40:00,2,12238,77,0.04,2,2,0,2,3191,26585,7305,11524,77,77,0,77,0.00,0.15,0.05,0.03
2017-12-22 22:50:00,2,20698,53,0.00,2,2,0,2,15421,25714,3525,20918,0,77,35,74,0.00,0.00,0.00,0.00
2017-12-22 23:00:00,2,24891,53,0.01,2,2,0,2,9235,37163,6948,26466,0,78,35,74,0.00,0.10,0.03,0.00
2017-12-22 23:10:00,2,16876,77,0.01,2,2,0,2,14126,23539,2836,15600,77,77,0,77,0.00,0.05,0.02,0.00
2017-12-22 23:20:00,2,21076,77,0.00,2,2,0,2,14769,28466,4639,22079,77,77,0,77,0.00,0.00,0.00,0.00
2017-12-22 23:30:00,2,12679,77,0.01,2,2,0,2,9518,19162,3577,10668,77,77,0,77,0.00,0.05,0.02,0.00
2017-12-22 23:40:00,2,6838,77,0.02,2,2,0,2,4681,8131,1109,7036,77,77,0,77,0.00,0.10,0.03,0.00
2017-12-22 23:50:00,2,4303,75,0.13,2,2,0,2,3123,7125,1422,3569,71,77,3,77,0.00,0.25,0.07,0.15
